EN

Hourly Weather Lago d'Arno

Today, 4 August, Wednesday

Time Temperature Precipitation Wind Pressure Humidity
00:00 +9°C° 0 mm 1 mps 607 mmHg 79%
01:00 +9°C° 0 mm 1 mps 607 mmHg 77%
02:00 +9°C° 0 mm 1 mps 607 mmHg 79%
03:00 +9°C° 0 mm 1 mps 606 mmHg 80%
04:00 +9°C° 0 mm 1 mps 606 mmHg 81%
05:00 +9°C° 0 mm 1 mps 606 mmHg 82%
06:00 +9°C° 0 mm 0 mps 607 mmHg 83%
07:00 +9°C° 0 mm 0 mps 607 mmHg 84%
08:00 +11°C° 0.2 mm 1 mps 607 mmHg 84%
09:00 +11°C° 0.2 mm 1 mps 607 mmHg 84%
10:00 +12°C° 0.2 mm 2 mps 607 mmHg 84%
11:00 +10°C° 0.6 mm 2 mps 607 mmHg 87%
12:00 +11°C° 0.6 mm 1 mps 607 mmHg 91%
13:00 +10°C° 0.6 mm 1 mps 606 mmHg 94%
14:00 +10°C° 1.3 mm 1 mps 606 mmHg 95%
15:00 +10°C° 1.3 mm 1 mps 606 mmHg 96%
16:00 +10°C° 1.3 mm 1 mps 606 mmHg 97%
17:00 +9°C° 2.7 mm 1 mps 605 mmHg 97%
18:00 +9°C° 2.7 mm 1 mps 605 mmHg 97%
19:00 +9°C° 2.7 mm 1 mps 605 mmHg 98%
20:00 +9°C° 3.6 mm 1 mps 605 mmHg 98%
21:00 +9°C° 3.6 mm 1 mps 604 mmHg 98%
22:00 +9°C° 3.6 mm 1 mps 604 mmHg 98%
23:00 +8°C° 5.5 mm 1 mps 604 mmHg 98%

Tomorrow, 5 August, Thursday

Time Temperature Precipitation Wind Pressure Humidity
00:00 +7°C° 5.5 mm 2 mps 603 mmHg 98%
01:00 +6°C° 5.5 mm 2 mps 603 mmHg 98%
02:00 +5°C° 5.6 mm 2 mps 603 mmHg 97%
03:00 +4°C° 5.6 mm 3 mps 602 mmHg 96%
04:00 +3°C° 5.6 mm 3 mps 602 mmHg 95%
05:00 +4°C° 0.5 mm 3 mps 602 mmHg 93%
06:00 +6°C° 0.5 mm 2 mps 602 mmHg 92%
07:00 +6°C° 0.5 mm 2 mps 603 mmHg 90%
08:00 +8°C° 0 mm 2 mps 603 mmHg 80%
09:00 +11°C° 0 mm 1 mps 604 mmHg 69%
10:00 +13°C° 0 mm 1 mps 605 mmHg 59%
11:00 +14°C° 0 mm 1 mps 605 mmHg 57%
12:00 +15°C° 0 mm 1 mps 605 mmHg 54%
13:00 +16°C° 0 mm 1 mps 605 mmHg 51%
14:00 +15°C° 0.5 mm 1 mps 605 mmHg 59%
15:00 +14°C° 0.5 mm 1 mps 605 mmHg 66%
16:00 +14°C° 0.5 mm 2 mps 604 mmHg 74%
17:00 +13°C° 1.1 mm 1 mps 604 mmHg 78%
18:00 +12°C° 1.1 mm 1 mps 604 mmHg 82%
19:00 +10°C° 1.1 mm 0 mps 604 mmHg 86%
20:00 +10°C° 0.3 mm 1 mps 604 mmHg 86%
21:00 +9°C° 0.3 mm 1 mps 604 mmHg 87%
22:00 +8°C° 0.3 mm 1 mps 604 mmHg 87%
23:00 +8°C° 0 mm 1 mps 604 mmHg 88%

Day after tomorrow, 6 August, Friday

Time Temperature Precipitation Wind Pressure Humidity
00:00 +8°C° 0 mm 1 mps 603 mmHg 88%
01:00 +7°C° 0 mm 1 mps 603 mmHg 88%
02:00 +7°C° 0 mm 1 mps 603 mmHg 87%
03:00 +7°C° 0 mm 1 mps 603 mmHg 87%
04:00 +7°C° 0 mm 1 mps 603 mmHg 87%
05:00 +8°C° 0 mm 1 mps 604 mmHg 84%
06:00 +9°C° 0 mm 1 mps 604 mmHg 82%
07:00 +9°C° 0 mm 0 mps 605 mmHg 79%
08:00 +11°C° 0 mm 1 mps 605 mmHg 73%
09:00 +13°C° 0 mm 1 mps 606 mmHg 66%
10:00 +14°C° 0 mm 1 mps 607 mmHg 60%
11:00 +15°C° 0.1 mm 2 mps 607 mmHg 58%
12:00 +16°C° 0.1 mm 2 mps 607 mmHg 57%
13:00 +16°C° 0.1 mm 2 mps 607 mmHg 55%
14:00 +16°C° 0.1 mm 2 mps 607 mmHg 56%
15:00 +16°C° 0.1 mm 2 mps 607 mmHg 57%
16:00 +16°C° 0.1 mm 2 mps 607 mmHg 59%
17:00 +15°C° 0.1 mm 2 mps 607 mmHg 68%
18:00 +14°C° 0.1 mm 1 mps 606 mmHg 78%
19:00 +12°C° 0.1 mm 1 mps 606 mmHg 87%
20:00 +11°C° 0 mm 1 mps 606 mmHg 89%
21:00 +10°C° 0 mm 1 mps 606 mmHg 91%
22:00 +10°C° 0 mm 1 mps 606 mmHg 92%
23:00 +9°C° 0 mm 1 mps 606 mmHg 89%

7 August, Saturday

Time Temperature Precipitation Wind Pressure Humidity
00:00 +9°C° 0 mm 1 mps 606 mmHg 87%
01:00 +9°C° 0 mm 1 mps 606 mmHg 84%
02:00 +8°C° 0 mm 1 mps 606 mmHg 84%
03:00 +8°C° 0 mm 1 mps 605 mmHg 84%
04:00 +8°C° 0 mm 1 mps 605 mmHg 84%
05:00 +9°C° 0 mm 1 mps 606 mmHg 84%
06:00 +10°C° 0 mm 1 mps 606 mmHg 83%
07:00 +11°C° 0 mm 1 mps 607 mmHg 83%
08:00 +12°C° 0 mm 1 mps 607 mmHg 79%
09:00 +14°C° 0 mm 1 mps 608 mmHg 75%
10:00 +15°C° 0 mm 2 mps 608 mmHg 70%
11:00 +15°C° 0.2 mm 2 mps 608 mmHg 71%
12:00 +15°C° 0.2 mm 2 mps 608 mmHg 72%
13:00 +16°C° 0.2 mm 2 mps 608 mmHg 72%
14:00 +16°C° 0.3 mm 2 mps 608 mmHg 73%
15:00 +16°C° 0.3 mm 2 mps 608 mmHg 73%
16:00 +16°C° 0.3 mm 2 mps 608 mmHg 74%
17:00 +15°C° 0.2 mm 2 mps 607 mmHg 79%
18:00 +14°C° 0.2 mm 2 mps 607 mmHg 84%
19:00 +13°C° 0.2 mm 1 mps 607 mmHg 89%
20:00 +12°C° 0.1 mm 1 mps 607 mmHg 90%
21:00 +12°C° 0.1 mm 1 mps 607 mmHg 90%
22:00 +11°C° 0.1 mm 1 mps 607 mmHg 90%
23:00 +11°C° 0 mm 1 mps 607 mmHg 91%

8 August, Sunday

Time Temperature Precipitation Wind Pressure Humidity
00:00 +11°C° 0 mm 1 mps 607 mmHg 91%
01:00 +11°C° 0 mm 1 mps 607 mmHg 91%
02:00 +10°C° 0 mm 1 mps 607 mmHg 91%
03:00 +10°C° 0 mm 1 mps 606 mmHg 92%
04:00 +10°C° 0 mm 1 mps 606 mmHg 92%
05:00 +11°C° 0 mm 1 mps 607 mmHg 90%
06:00 +12°C° 0 mm 1 mps 607 mmHg 88%
07:00 +11°C° 0 mm 0 mps 608 mmHg 86%
08:00 +14°C° 0.1 mm 1 mps 608 mmHg 80%
09:00 +15°C° 0.1 mm 1 mps 609 mmHg 73%
10:00 +16°C° 0.1 mm 2 mps 610 mmHg 67%
11:00 +17°C° 0.1 mm 2 mps 610 mmHg 65%
12:00 +17°C° 0.1 mm 3 mps 610 mmHg 62%
13:00 +18°C° 0.1 mm 3 mps 610 mmHg 60%
14:00 +17°C° 0.1 mm 3 mps 610 mmHg 62%
15:00 +17°C° 0.1 mm 3 mps 610 mmHg 63%
16:00 +17°C° 0.1 mm 2 mps 610 mmHg 65%
17:00 +15°C° 0.4 mm 2 mps 610 mmHg 72%
18:00 +14°C° 0.4 mm 2 mps 610 mmHg 80%
19:00 +12°C° 0.4 mm 1 mps 609 mmHg 88%
20:00 +12°C° 1.1 mm 1 mps 609 mmHg 88%
21:00 +11°C° 1.1 mm 1 mps 610 mmHg 89%
22:00 +11°C° 1.1 mm 1 mps 610 mmHg 90%
23:00 +9°C° 0.2 mm 2 mps 610 mmHg 90%

9 August, Monday

Time Temperature Precipitation Wind Pressure Humidity
00:00 +9°C° 0.2 mm 2 mps 609 mmHg 90%
01:00 +8°C° 0.2 mm 2 mps 609 mmHg 90%
02:00 +8°C° 0 mm 2 mps 609 mmHg 90%
03:00 +8°C° 0 mm 2 mps 609 mmHg 90%
04:00 +7°C° 0 mm 2 mps 609 mmHg 90%
05:00 +9°C° 0 mm 1 mps 610 mmHg 88%
06:00 +10°C° 0 mm 1 mps 610 mmHg 87%
07:00 +11°C° 0 mm 1 mps 611 mmHg 85%
08:00 +13°C° 0.2 mm 1 mps 611 mmHg 80%
09:00 +14°C° 0.2 mm 1 mps 612 mmHg 75%
10:00 +15°C° 0.2 mm 1 mps 612 mmHg 70%
11:00 +16°C° 0.5 mm 1 mps 613 mmHg 69%
12:00 +16°C° 0.5 mm 1 mps 613 mmHg 67%
13:00 +16°C° 0.5 mm 1 mps 613 mmHg 66%
14:00 +16°C° 0.5 mm 1 mps 613 mmHg 65%
15:00 +16°C° 0.5 mm 1 mps 613 mmHg 63%
16:00 +15°C° 0.5 mm 0 mps 613 mmHg 62%
17:00 +15°C° 0.1 mm 1 mps 613 mmHg 67%
18:00 +14°C° 0.1 mm 1 mps 613 mmHg 72%
19:00 +13°C° 0.1 mm 1 mps 613 mmHg 77%
20:00 +12°C° 0 mm 1 mps 613 mmHg 78%
21:00 +9°C° 0 mm 2 mps 613 mmHg 79%
22:00 +8°C° 0 mm 2 mps 612 mmHg 80%
23:00 +8°C° 0 mm 2 mps 612 mmHg 79%
Show more